www.pogodaiklimat.ru

Погода и климат >> Архив погоды >> Украина >> Кривой Рог


АРХИВ ПОГОДЫ в Кривом Роге

Время (UTC), дата Ветер
(напр.,м/с)
 
Видим.   Явления Облачность Т
(С)
Тd
(С)
f
(%)
Тe
(С)
Тes
(С)
Комфортность P
(гПа)
Po
(гПа)
Тmin
(С)
Tmax
(С)
R
(мм)
R24
(мм)
S
(см)
09 16.02 СЗ 7 10 км 10/10 270 м
[St]
+3.0 0.0 81 -3 -3 по сезону 1023.9 1008.5
12 16.02 СЗ 5 10 км 10/10 270 м
[St]
+3.5 +0.6 81 -2 -2 по сезону 1023.6 1008.2
15 16.02 СЗ 6 10 км 10/10 240 м
[St]
+2.5 +0.3 85 -3 -3 по сезону 1023.2 1007.8
18 16.02 СЗ 5 4100 м дымка 10/10 150 м
[St]
+1.7 +1.2 96 -4 -4 по сезону 1023.4 1007.9 +4.2
21 16.02 СЗ 4 2600 м дымка 10/10 90 м
[St]
+1.2 +0.7 96 -4 -4 по сезону 1022.8 1007.3
00 17.02 З 4 300 м туман ?/? +1.0 +1.0 100 -5 -5 по сезону 1022.1 1006.6
03 17.02 З 5 200 м туман ?/? +0.6 +0.6 100 -6 -6 по сезону 1020.6 1005.1
06 17.02 З 3 100 м переохл. туман [диам. гололёда 1 мм] ?/? -0.8 -0.8 100 -6 -6 по сезону 1020.2 1004.6 -0.8
09 17.02 З 7 10 км {туман} ясно +8.7 +3.1 68 +5 +6 тепло 1018.2 1003.2
12 17.02 З 8 10 км {туман} ясно +10.6 +2.1 56 +7 +8 тепло 1015.9 1001.0
15 17.02 СЗ 9 10 км ясно +9.4 -0.8 49 +5 +5 тепло 1014.7 999.8
18 17.02 СЗ 8 10 км ясно +6.3 -0.2 63 +1 +1 тепло 1015.2 1000.1 +11.5
21 17.02 С 6 10 км 10/10 870 м
[Sc]
+5.8 +0.7 70 +1 +1 тепло 1016.0 1000.9
00 18.02 С 5 10 км ясно +2.9 -0.4 79 -2 -2 тепло 1017.3 1002.0
03 18.02 СЗ 6 10 км ясно +1.2 -2.0 79 -5 -5 по сезону 1018.0 1002.6
06 18.02 СЗ 4 10 км 3/0
[Ci fib]
+0.7 -2.3 80 -4 -4 тепло 1020.3 1004.8 -0.2
09 18.02 С 8 10 км 3/0
[Ci fib]
+4.0 -4.0 56 -2 -1 по сезону 1020.9 1005.6
12 18.02 С 7 10 км 3/0
[Ci fib]
+4.4 -5.4 49 -1 0 по сезону 1021.5 1006.2
15 18.02 С 5 10 км 3/0
[Ci fib]
+2.5 -5.7 55 -2 -2 по сезону 1022.5 1007.1
18 18.02 С 4 10 км 3/0
[Ci fib]
-1.3 -5.7 72 -7 -7 по сезону 1024.2 1008.5 +5.0
21 18.02 СВ 3 10 км ясно -2.6 -5.2 82 -8 -8 по сезону 1025.6 1009.8
00 19.02 С 1 10 км ясно -4.8 -6.8 86 -7 -7 по сезону 1026.6 1010.7
03 19.02 штиль 0 10 км ясно -5.5 -7.7 84 -6 -6 по сезону 1026.8 1010.8
06 19.02 штиль 0 10 км 3/0
[Ci fib]
-5.1 -6.8 88 -6 -5 по сезону 1027.8 1011.9 -5.8
09 19.02 ЮЗ 3 10 км ясно +2.2 -4.6 61 -2 +3 по сезону 1027.6 1012.1
12 19.02 ЮЗ 3 10 км ?/? +5.2 -8.6 36 +3 +3 тепло 1026.1 1010.8
15 19.02 Ю 4 10 км ясно +3.3 -9.0 40 -0 -0 тепло 1024.8 1009.4
18 19.02 Ю 3 10 км ясно -1.0 -8.4 57 -5 -5 по сезону 1024.2 1008.5 +5.2
21 19.02 Ю 5 10 км ясно -2.4 -7.6 67 -9 -9 по сезону 1023.1 1007.4
00 20.02 Ю 3 10 км ясно -4.5 -6.5 86 -10 -10 по сезону 1021.5 1005.7
03 20.02 Ю 3 10 км ясно -5.6 -7.0 90 -11 -11 по сезону 1019.5 1003.7
06 20.02 Ю 4 10 км 10/10 500 м
[Sc]
-1.6 -3.3 88 -7 -7 по сезону 1018.0 1002.4 -5.6
09 20.02 ЮЗ 7 10 км 10/10 360 м
[St]
+4.0 +0.3 77 -2 -2 тепло 1016.2 1001.0
12 20.02 ЮЗ 7 10 км 10/10 420 м
[St]
+5.4 +1.1 74 0 0 по сезону 1014.2 999.1
15 20.02 З 7 10 км 10/10 210 м
[St]
+3.6 +1.6 87 -2 -2 по сезону 1014.4 999.2
18 20.02 З 4 5000 м дымка 10/10 570 м
[Sc]
+2.6 +1.3 91 -2 -2 тепло 1015.1 999.8 +5.8
21 20.02 З 4 5000 м дымка 4/0
[Ac trans]
+0.3 -1.1 90 -5 -5 по сезону 1014.9 999.5
00 21.02 З 3 10 км ясно -1.0 -2.5 90 -6 -6 по сезону 1014.7 999.2
03 21.02 З 5 10 км 8/0
[Ac trans]
-0.4 -2.2 88 -7 -7 по сезону 1014.1 998.6
06 21.02 З 6 10 км 9/0
[Ac trans]
+2.1 -0.7 82 -4 -4 по сезону 1014.1 998.8 -1.9
09 21.02 СЗ 11 10 км 6/6 1000 м
[Sc]
+5.5 -5.2 46 -0 -0 тепло 1013.7 998.6
12 21.02 СЗ 10
{18}
10 км 8/6 1200 м
[Sc Ci fib]
+4.8 -6.8 43 -1 -1 по сезону 1013.9 998.7
15 21.02 СЗ 7 10 км 8/0
[Ac trans Ci fib]
+2.9 -6.3 51 -3 -3 по сезону 1015.2 999.9
18 21.02 З 3 10 км ясно -0.8 -6.9 63 -5 -5 по сезону 1016.0 1000.5 +6.7
21 21.02 С 2 10 км 3/0
[Ci fib]
-2.1 -6.8 70 -6 -6 по сезону 1017.2 1001.6
00 22.02 штиль 0 10 км 3/0
[Ci fib]
-4.3 -8.1 75 -5 -5 по сезону 1017.5 1001.8
03 22.02 С 3 10 км 8/0
[Cs]
-4.9 -8.9 74 -10 -10 по сезону 1017.3 1001.5
06 22.02 С 4 10 км 10/0
[Ac und]
-3.6 -9.3 65 -9 -9 по сезону 1017.2 1001.5 -5.1 6
09 22.02 С 4 10 км 10/0
[As op]
-3.3 -11.7 52 -9 -8 по сезону 1017.8 1002.1
12 22.02 С 6 10 км 10/6 1200 м
[Sc As op]
-2.9 -11.5 51 -10 -9 холодно 1018.0 1002.3
15 22.02 С 8 10 км в посл. час ливневой снег 10/6 960 м
[Cb calv Ac und]
-4.7 -12.4 55 -13 -13 очень
холодно
1020.1 1004.3
18 22.02 С 8 10 км {ливн. осадки} 10/6 960 м
[Cb calv Ac und]
-6.3 -13.3 58 -15 -15 очень
холодно
1023.7 1007.7 -2.9 0.0
21 22.02 С 6 10 км 10/10 1200 м
[Sc]
-6.8 -13.0 61 -15 -15 холодно 1025.7 1009.7
00 23.02 С 4 10 км ясно -9.4 -13.4 73 -16 -16 холодно 1027.2 1011.0
03 23.02 С 5 10 км ясно -10.1 -12.9 80 -18 -18 очень
холодно
1029.6 1013.3

 

Местоположение метеостанции Кривой Рог (Днепропетровская область, Украина): широта 48.03 долгота 33.22 высота над уровнем моря 124 м.

В архиве по умолчанию представлена погода в Кривом Роге за последнюю неделю. Архивные данные за месяц целиком и за предыдущие месяцы, начиная с января 2011 года, Вы можете получить, выбрав интересующий диапазон дат из раскрывающегося списка и нажав кнопку "Ввод!".


*Определитесь, кто Вы:
робот инопланетянин человек

Внимание! Время в таблицах - всемирное. Для получения местного времени необходимо прибавить поправку, которая равна 2 ч.

Смотрите также архив погоды в соседних городах и на ближайших метеорологических станциях:

Погода в Долинской (Кировоградская область, Украина) (35 км)
Погода в Комиссаровке (Днепропетровская область, Украина) (67 км)
Погода в Лошкаревке (Днепропетровская область, Украина) (73 км)
Погода в Великой Александровке (Херсонская область, Украина) (79 км)
Погода в Бобринце (Кировоградская область, Украина) (80 км)
Погода в Знаменке (Кировоградская область, Украина) (87 км)
Погода в Баштанке (Николаевская область, Украина) (88 км)
Погода в Кропивницком (Кировоградская область, Украина) (93 км)
Погода в Никополе (Днепропетровская область, Украина) (105 км)
Погода в Светловодске (Кировоградская область, Украина) (113 км)

Пояснения к столбцам:

Ветер - указаны скорость ветра в м/с - средняя за 10 мин, порывы в срок и между сроками (в фигурных скобках) и направление, откуда дует ветер: С - северный, СВ - северо-восточный, В - восточный, ЮВ - юго-восточный, Ю - южный, ЮЗ - юго-западный, З - западный, СЗ - северо-западный.
Видимость - горизонтальная дальность видимости в метрах или километрах. При видимости от 1 до 10 км при отсутствии осадков обычно наблюдается дымка, при ухудшении видимости до 1 км и менее - туман. В сухую погоду видимость может ухудшаться дымом, пылью или мглою.
Явления - указаны атмосферные явления, наблюдавшиеся в срок или в последний час перед сроком; фигурными скобками обозначены явления, наблюдавшиеся между сроками (за 1-3 часа до срока); квадратными скобками обозначены град или гололедные отложения с указанием их диаметра в мм.
Облачность - указаны через наклонную черту общая и нижняя облачность в баллах и высота нижней границы облаков в метрах; квадратными скобками обозначены формы облаков: Ci - перистые, Cs - перисто-слоистые, Cc - перисто-кучевые, Ac - высококучевые, As - высокослоистые, Sc - слоисто-кучевые, Ns - слоисто-дождевые, Cu - кучевые, Cb - кучево-дождевые. Подробнее классификацию облаков см. в Атласе облаков (PDF).
T - Температура воздуха - температура, измеренная на высоте 2 м над землей.
Td - Температура точки росы - температура, при понижении до которой содержащийся в воздухе водяной пар достигнет насыщения.
f - Относительная влажность воздуха - влажноcть воздуха, измеренная на высоте 2 м над землей.
Te - Эффективная температура - температура, которую ощущает одетый по сезону человек в тени. Характеристика душности погоды. При расчете учитывается влияние влажности воздуха и скорости ветра на теплоощущения человека.
Tes - Эффективная температура на солнце - температура, которую ощущает человек, с поправкой на солнечный нагрев. Характеристика знойности погоды. Зависит от высоты солнца над горизонтом, облачности и скорости ветра. Ночью, в пасмурную погоду, а также при ветре 12 м/с и более поправка равна нулю.
P - Атмосферное давление - приведенное к уровню моря атмосферное давление.
Po - Атмосферное давление - измеренное на уровне метеостанции атмосферное давление.
Tmin - Минимальная температура - минимум температуры воздуха на высоте 2 м над землей.
Tmax - Максимальная температура - максимум температуры воздуха на высоте 2 м над землей.
R - Количество осадков - Количество выпавших осадков за период времени, мм. При наведении курсора мыши на число - период времени, за который выпало указанное количество осадков.
R24 - Количество осадков - Количество выпавших осадков за 24 часа, мм.
S - Снежный покров - Высота снежного покрова, см. При наведении курсора мыши на число - состояние снежного покрова и степень покрытия местности в баллах.